Location: Castrojimeno
(41.3966°N, 3.8473°W)
Time: 12:04:49
(UTC+00:00)

CZ-4 R/B - Pass Details

Date: 15 May 2026
Orbit: 491 x 535 km, 97.5° (Epoch: 5 June)

Event Time Altitude Azimuth Distance (km) Brightness Sun altitude
Exits shadow 21:12:57 - 209° (SSW) 2,415 4.4 -16.8°
Reaches altitude 10° 21:15:21 10° 231° (SW) 1,680 3.8 -17.1°
Maximum altitude 21:17:28 15° 267° (W) 1,403 3.9 -17.3°
Drops below altitude 10° 21:19:37 10° 304° (WNW) 1,690 5.0 -17.6°
Sets 21:22:26 0° 328° (NNW) 2,581 6.4 -18.0°
